Date,TemperatureHighF,TemperatureAvgF,TemperatureLowF,DewpointHighF,DewpointAvgF,DewpointLowF,HumidityHigh,HumidityAvg,HumidityLow,PressureMaxIn,PressureMinIn,WindSpeedMaxMPH,WindSpeedAvgMPH,GustSpeedMaxMPH,PrecipitationSumIn
2013-1-1,28,20,11,19,13,8,89,75,61,24.75,24.60,15,3,15,0.00
2013-1-2,27,16,5,15,9,2,88,75,57,24.79,24.68,10,2,10,0.00
2013-1-3,29,15,3,16,8,0,88,75,52,24.87,24.75,10,1,10,0.00
2013-1-4,26,15,3,13,7,-2,85,71,52,24.84,24.71,8,1,8,0.00
2013-1-5,30,16,3,13,7,-1,86,68,43,24.90,24.77,7,1,7,0.00
2013-1-6,34,20,4,18,10,-1,84,67,46,24.87,24.59,11,2,11,0.00
2013-1-7,37,28,19,18,15,12,77,59,41,24.60,24.52,12,2,12,0.00
2013-1-8,38,24,10,18,13,5,84,64,43,24.79,24.56,12,2,12,0.00
2013-1-9,24,19,15,16,13,10,83,78,70,24.84,24.79,5,1,5,0.00
2013-2-8,59,46,36,23,19,2,53,37,10,24.54,24.28,37,17,37,0.00
2013-2-11,24,24,24,19,18,18,83,79,77,24.58,24.57,13,6,13,0.00
2013-2-12,35,26,18,20,13,6,84,59,31,24.70,24.58,33,10,33,0.00
2013-2-13,43,30,19,18,14,8,70,52,32,24.72,24.63,31,7,31,0.00
2013-2-14,45,34,21,21,18,13,72,53,32,24.75,24.64,40,10,40,0.00
2013-2-15,47,37,26,19,15,9,68,44,22,24.87,24.75,29,10,29,0.00
2013-2-16,51,37,21,16,12,5,64,37,19,24.93,24.68,13,3,13,0.00
2013-2-17,57,40,21,19,11,0,65,35,10,24.68,24.32,42,5,42,0.00
2013-2-18,43,35,24,20,2,-11,47,27,10,24.66,24.40,32,10,32,0.00
2013-2-19,25,23,20,9,1,-5,53,38,30,24.61,24.53,23,5,23,0.00
2013-2-26,37,32,28,9,4,-1,44,31,19,24.64,24.49,42,17,42,0.00
2013-2-27,28,23,21,13,10,8,64,55,44,24.78,24.64,22,6,22,0.00
2013-3-5,58,47,40,12,9,5,30,22,13,24.67,24.64,14,6,14,0.00
2013-3-6,66,50,34,22,12,-1,50,25,7,24.67,24.48,25,6,25,0.00
2013-3-7,67,52,38,20,11,3,38,21,8,24.60,24.44,21,5,21,0.00
2013-3-8,57,43,36,37,24,7,88,52,20,24.51,24.30,41,7,43,0.04
2013-3-9,40,35,28,32,25,18,87,67,52,24.54,24.31,31,10,31,0.00
2013-3-10,50,39,29,28,18,11,80,45,24,24.70,24.53,35,17,35,0.00
2013-3-11,40,35,30,19,18,17,61,51,41,24.70,24.67,29,6,34,0.00